Change the Weather History Date:

Monday, October 7, 2013

  Actual Average Record
Temperature  
Mean Temperature 60 °F -  
Max Temperature 73 °F 61 °F 82 °F (1990)
Min Temperature 48 °F 40 °F 30 °F (1992)
Degree Days  
Heating Degree Days 4    
Growing Degree Days 10 (Base 50)    
Moisture  
Dew Point 56 °F    
Average Humidity 91    
Maximum Humidity 100    
Minimum Humidity 66    
Precipitation  
Precipitation 0.82 in - - ()
Sea Level Pressure  
Sea Level Pressure 29.79 in    
Wind  
Wind Speed 11 mph (WSW)    
Max Wind Speed 29 mph    
Max Gust Speed 48 mph    
Visibility 7 miles    
Events Rain    
Averages and records for this station are not official NWS values.
T = Trace of Precipitation, MM = Missing Value Source: NWS Daily Summary

Daily Weather History Graph

Daily Weather History Graph

Search for Another Location

Airport or City:

Trip Planner

Search our weather history database for the weather conditions in past years. The results will help you decide how hot, cold, wet, or windy it might be!

Date:

Astronomy

Oct. 07, 2013 Rise Set
Actual Time 7:06 AM EDT 6:31 PM EDT
Civil Twilight 6:37 AM EDT 7:00 PM EDT
Nautical Twilight 6:04 AM EDT 7:33 PM EDT
Astronomical Twilight 5:31 AM EDT 8:06 PM EDT
Moon 9:58 AM EDT (10/7) 8:09 PM EDT (10/7)
Length of Visible Light 12h 22m
Length of Day
11h 25m
Waxing Crescent, 8% of the Moon is Illuminated
Oct 7
Waxing Crescent
Oct 11
First Quarter
Oct 18
Full
Oct 26
Last Quarter
Nov 3
New

Hourly Weather History & Observations

Time (EDT) Temp. Dew Point Humidity Pressure Visibility Wind Dir Wind Speed Gust Speed Precip Events Conditions
12:50 AM 60.8 °F 59.0 °F 94% 29.90 in 10.0 mi ESE 10.4 mph - N/A   Scattered Clouds
12:53 AM 61.0 °F 59.0 °F 93% 29.90 in 10.0 mi ESE 9.2 mph - N/A   Mostly Cloudy
1:53 AM 61.0 °F 59.0 °F 93% 29.89 in 10.0 mi ESE 8.1 mph - N/A   Clear
2:53 AM 61.0 °F 59.0 °F 93% 29.87 in 10.0 mi SE 9.2 mph - N/A   Clear
3:53 AM 62.1 °F 59.0 °F 90% 29.84 in 10.0 mi ESE 10.4 mph - N/A   Scattered Clouds
6:53 AM 64.0 °F 60.1 °F 87% 29.80 in 10.0 mi SE 9.2 mph - N/A   Overcast
7:53 AM 66.0 °F 60.1 °F 81% 29.78 in 10.0 mi ESE 10.4 mph - N/A   Overcast
8:53 AM 66.9 °F 61.0 °F 81% 29.75 in 10.0 mi ESE 9.2 mph 18.4 mph N/A   Mostly Cloudy
9:53 AM 70.0 °F 62.1 °F 76% 29.71 in 10.0 mi ESE 15.0 mph - N/A   Partly Cloudy
10:53 AM 73.0 °F 61.0 °F 66% 29.69 in 10.0 mi SSE 23.0 mph 33.4 mph N/A   Scattered Clouds
11:53 AM 73.0 °F 62.1 °F 68% 29.67 in 10.0 mi SSE 15.0 mph 21.9 mph N/A   Overcast
12:29 PM 63.0 °F 57.9 °F 84% 29.72 in 9.0 mi West 28.8 mph 48.3 mph 0.00 in Rain Rain
12:37 PM 61.0 °F 57.9 °F 90% 29.70 in 2.5 mi WNW 15.0 mph 36.8 mph 0.07 in Rain Heavy Rain
12:41 PM 60.1 °F 59.0 °F 96% 29.71 in 1.8 mi West 11.5 mph 27.6 mph 0.10 in Rain Heavy Rain
12:43 PM 60.1 °F 59.0 °F 96% 29.71 in 1.8 mi WNW 11.5 mph 27.6 mph 0.10 in Rain Heavy Rain
12:53 PM 59.0 °F 57.9 °F 96% 29.70 in 1.5 mi WNW 13.8 mph - 0.18 in Rain Heavy Rain
1:37 PM 57.9 °F 55.9 °F 93% 29.71 in 2.0 mi West 8.1 mph - 0.35 in Rain Heavy Rain
1:49 PM 57.2 °F 57.2 °F 100% 29.72 in 1.8 mi West 9.2 mph - 0.42 in Rain Heavy Rain
1:53 PM 57.9 °F 57.0 °F 97% 29.73 in 1.8 mi WSW 10.4 mph - 0.44 in Rain Heavy Rain
2:08 PM 57.9 °F 57.0 °F 97% 29.73 in 2.0 mi WSW 5.8 mph - 0.08 in Rain Heavy Rain
2:21 PM 57.9 °F 57.0 °F 97% 29.71 in 3.0 mi WSW 6.9 mph - 0.12 in Rain Heavy Rain
2:30 PM 57.9 °F 57.0 °F 97% 29.72 in 3.0 mi WSW 6.9 mph - 0.14 in Rain Rain
2:53 PM 57.9 °F 57.0 °F 97% 29.73 in 6.0 mi West 8.1 mph - 0.16 in Rain Rain
3:16 PM 57.9 °F 57.0 °F 97% 29.75 in 2.5 mi WSW 10.4 mph 17.3 mph 0.05 in Rain Heavy Rain
3:25 PM 57.0 °F 55.0 °F 93% 29.76 in 2.0 mi West 17.3 mph 23.0 mph 0.09 in Rain Heavy Rain
3:37 PM 55.0 °F 52.0 °F 89% 29.77 in 3.0 mi WNW 20.7 mph 29.9 mph 0.13 in Rain Heavy Rain
4:23 PM 54.0 °F 52.0 °F 93% 29.80 in 3.0 mi West 12.7 mph - 0.04 in Rain Light Rain
4:31 PM 54.0 °F 52.0 °F 93% 29.80 in 4.0 mi West 8.1 mph - 0.04 in Rain Light Rain
4:43 PM 54.0 °F 52.0 °F 93% 29.80 in 10.0 mi West 9.2 mph - 0.04 in   Overcast
4:53 PM 54.0 °F 52.0 °F 93% 29.80 in 10.0 mi WNW 8.1 mph - 0.04 in   Overcast
5:53 PM 55.0 °F 52.0 °F 89% 29.83 in 10.0 mi Calm Calm - N/A   Scattered Clouds
6:53 PM 54.0 °F 52.0 °F 93% 29.86 in 10.0 mi Calm Calm - N/A   Clear
8:53 PM 50.0 °F 48.0 °F 93% 29.92 in 10.0 mi Calm Calm - N/A   Scattered Clouds
9:53 PM 48.9 °F 48.0 °F 97% 29.94 in 10.0 mi North 3.5 mph - N/A   Scattered Clouds
10:53 PM 48.9 °F 46.9 °F 93% 29.96 in 10.0 mi NW 3.5 mph - N/A   Partly Cloudy
11:53 PM 51.1 °F 46.0 °F 83% 29.97 in 10.0 mi West 6.9 mph - N/A   Partly Cloudy